Weather History for KIKV - September, 2012

Change the Weather History Date:

Saturday, September 15, 2012

  Actual Average (KDSM) Record (KDSM)
Temperature  
Mean Temperature 60 °F 66 °F  
Max Temperature 78 °F 77 °F 97 °F (1927)
Min Temperature 42 °F 56 °F 37 °F (2007)
Degree Days  
Heating Degree Days 5 3  
Month to date heating degree days 22  
Since 1 July heating degree days 28  
Cooling Degree Days 0 4  
Month to date cooling degree days 79  
Year to date cooling degree days 1018  
Growing Degree Days 10 (Base 50)    
Moisture  
Dew Point 41 °F    
Average Humidity 63    
Maximum Humidity 100    
Minimum Humidity 7    
Precipitation  
Precipitation 0.00 in 0.10 in 1.67 in (1921)
Month to date precipitation 1.62  
Year to date precipitation 28.34  
Snow  
Snow 0.00 in 0.00 in - ()
Month to date snowfall 0.0  
Since 1 July snowfall 0.0  
Since 1 September snowfall 0.0  
Snow Depth -    
Sea Level Pressure  
Sea Level Pressure 30.22 in    
Wind  
Wind Speed 3 mph (South)    
Max Wind Speed 14 mph    
Max Gust Speed 18 mph    
Visibility 10 miles    
Events      
T = Trace of Precipitation, MM = Missing Value Source: NWS Daily Summary

Daily Weather History Graph

Daily Weather History Graph

Search for Another Location

Airport or City:

Trip Planner

Search our weather history database for the weather conditions in past years. The results will help you decide how hot, cold, wet, or windy it might be!

Date:

Astronomy

Sep. 15, 2012 Rise Set
Actual Time 6:55 AM CDT 7:22 PM CDT
Civil Twilight 6:27 AM CDT 7:50 PM CDT
Nautical Twilight 5:54 AM CDT 8:23 PM CDT
Astronomical Twilight 5:20 AM CDT 8:57 PM CDT
Moon 6:27 AM CDT (9/15) 6:52 PM CDT (9/15)
Length of Visible Light 13h 23m
Length of Day
12h 27m
Waning Crescent, 0% of the Moon is Illuminated
Sep 15
Waning Crescent
Sep 15
New
Sep 22
First Quarter
Sep 29
Full
Oct 8
Last Quarter

Hourly Weather History & Observations

Time (CDT) Temp. Dew Point Humidity Pressure Visibility Wind Dir Wind Speed Gust Speed Precip Events Conditions
12:15 AM 57.2 °F 51.8 °F 82% 30.30 in 10.0 mi Calm Calm - N/A   Clear
12:35 AM 55.4 °F 50.0 °F 82% 30.29 in 10.0 mi Calm Calm - N/A   Clear
12:55 AM 53.6 °F 51.8 °F 94% 30.29 in 10.0 mi Calm Calm - N/A   Clear
1:15 AM 53.6 °F 51.8 °F 94% 30.29 in 10.0 mi Calm Calm - N/A   Clear
1:35 AM 51.8 °F 51.8 °F 100% 30.29 in 10.0 mi SE 3.5 mph - N/A   Clear
1:55 AM 51.8 °F 51.8 °F 100% 30.29 in 10.0 mi SSE 3.5 mph - N/A   Clear
2:15 AM 51.8 °F 51.8 °F 100% 30.28 in 10.0 mi SSE 3.5 mph - N/A   Clear
2:35 AM 51.8 °F 50.0 °F 94% 30.28 in 10.0 mi Calm Calm - N/A   Clear
2:55 AM 48.2 °F 48.2 °F 100% 30.28 in 10.0 mi Calm Calm - N/A   Clear
3:15 AM 48.2 °F 48.2 °F 100% 30.28 in 10.0 mi Calm Calm - N/A   Clear
3:35 AM 48.2 °F 48.2 °F 100% 30.28 in 10.0 mi Calm Calm - N/A   Clear
3:55 AM 48.2 °F 48.2 °F 100% 30.28 in 10.0 mi Calm Calm - N/A   Clear
4:15 AM 46.4 °F 46.4 °F 100% 30.28 in 4.0 mi Calm Calm - N/A   Clear
4:35 AM 48.2 °F 48.2 °F 100% 30.28 in 10.0 mi Calm Calm - N/A   Clear
4:55 AM 44.6 °F 44.6 °F 100% 30.28 in 10.0 mi Calm Calm - N/A   Clear
5:15 AM 46.4 °F 46.4 °F 100% 30.28 in 10.0 mi Calm Calm - N/A   Clear
5:35 AM 44.6 °F 44.6 °F 100% 30.28 in 1.2 mi Calm Calm - N/A   Mist
5:55 AM 42.8 °F 42.8 °F 100% 30.29 in 3.0 mi Calm Calm - N/A   Clear
6:15 AM 44.6 °F 44.6 °F 100% 30.29 in 10.0 mi Calm Calm - N/A   Clear
6:35 AM 44.6 °F 44.6 °F 100% 30.29 in 1.8 mi Calm Calm - N/A   Mist
6:55 AM 42.8 °F 42.8 °F 100% 30.30 in 10.0 mi Calm Calm - N/A   Clear
7:15 AM 42.8 °F 42.8 °F 100% 30.29 in 10.0 mi Calm Calm - N/A   Clear
7:35 AM 44.6 °F 44.6 °F 100% 30.29 in 10.0 mi Calm Calm - N/A   Clear
7:55 AM 46.4 °F 46.4 °F 100% 30.29 in 10.0 mi Calm Calm - N/A   Clear
8:15 AM 48.2 °F 48.2 °F 100% 30.29 in 10.0 mi Calm Calm - N/A   Clear
8:35 AM 51.8 °F 51.8 °F 100% 30.29 in 10.0 mi Calm Calm - N/A   Clear
8:55 AM 55.4 °F 55.4 °F 100% 30.29 in 10.0 mi Calm Calm - N/A   Clear
9:15 AM 59.0 °F 55.4 °F 88% 30.29 in 10.0 mi SSW 4.6 mph - N/A   Clear
9:35 AM 62.6 °F 48.2 °F 59% 30.29 in 10.0 mi SSW 5.8 mph - N/A   Clear
9:55 AM 64.4 °F 46.4 °F 52% 30.28 in 10.0 mi SSW 6.9 mph - N/A   Clear
10:15 AM 66.2 °F 46.4 °F 49% 30.28 in 10.0 mi SW 10.4 mph - N/A   Clear
10:35 AM 69.8 °F 48.2 °F 46% 30.28 in 10.0 mi South 8.1 mph - N/A   Clear
10:55 AM 69.8 °F 46.4 °F 43% 30.27 in 10.0 mi South 8.1 mph - N/A   Clear
11:15 AM 71.6 °F 44.6 °F 38% 30.26 in 10.0 mi SW 9.2 mph - N/A   Clear
11:35 AM 71.6 °F 44.6 °F 38% 30.26 in 10.0 mi SW 9.2 mph - N/A   Clear
11:55 AM 73.4 °F 39.2 °F 29% 30.25 in 10.0 mi South 8.1 mph - N/A   Clear
12:15 PM 73.4 °F 39.2 °F 29% 30.24 in 10.0 mi SSW 6.9 mph - N/A   Clear
12:35 PM 75.2 °F 39.2 °F 27% 30.23 in 7.0 mi SW 5.8 mph - N/A   Clear
12:55 PM 75.2 °F 32.0 °F 21% 30.23 in 10.0 mi South 11.5 mph - N/A   Clear
1:15 PM 75.2 °F 32.0 °F 21% 30.22 in 10.0 mi South 6.9 mph - N/A   Clear
1:55 PM 77.0 °F 28.4 °F 17% 30.21 in 10.0 mi SSW 10.4 mph 16.1 mph N/A   Clear
2:15 PM 78.8 °F 26.6 °F 15% 30.20 in 10.0 mi SSE 13.8 mph - N/A   Clear
2:35 PM 78.8 °F 24.8 °F 14% 30.19 in 10.0 mi South 9.2 mph - N/A   Clear
2:55 PM 78.8 °F 23.0 °F 13% 30.18 in 10.0 mi SSW 5.8 mph 16.1 mph N/A   Clear
3:15 PM 78.8 °F 21.2 °F 12% 30.17 in 10.0 mi SSE 13.8 mph 18.4 mph N/A   Clear
3:35 PM 78.8 °F 17.6 °F 10% 30.17 in 10.0 mi South 10.4 mph 17.3 mph N/A   Clear
3:55 PM 78.8 °F 15.8 °F 9% 30.16 in 10.0 mi South 12.7 mph - N/A   Clear
4:15 PM 78.8 °F 15.8 °F 9% 30.15 in 10.0 mi SSW 10.4 mph - N/A   Clear
4:35 PM 78.8 °F 12.2 °F 8% 30.15 in 10.0 mi South 9.2 mph - N/A   Clear
4:55 PM 78.8 °F 10.4 °F 7% 30.15 in 10.0 mi South 6.9 mph - N/A   Clear
5:15 PM 78.8 °F 15.8 °F 9% 30.14 in 10.0 mi South 10.4 mph - N/A   Clear
5:35 PM 78.8 °F 10.4 °F 7% 30.14 in 10.0 mi SSW 8.1 mph - N/A   Clear
5:55 PM 77.0 °F 12.2 °F 9% 30.13 in 10.0 mi South 6.9 mph - N/A   Clear
6:15 PM 75.2 °F 12.2 °F 9% 30.13 in 10.0 mi South 8.1 mph - N/A   Clear
6:35 PM 75.2 °F 19.4 °F 12% 30.12 in 10.0 mi South 8.1 mph - N/A   Clear
6:55 PM 73.4 °F 26.6 °F 18% 30.12 in 10.0 mi South 4.6 mph - N/A   Clear
7:15 PM 71.6 °F 30.2 °F 22% 30.12 in 10.0 mi South 3.5 mph - N/A   Clear
7:35 PM 66.2 °F 41.0 °F 40% 30.12 in 10.0 mi Calm Calm - N/A   Clear
7:55 PM 62.6 °F 44.6 °F 52% 30.12 in 10.0 mi Calm Calm - N/A   Clear
8:15 PM 62.6 °F 44.6 °F 52% 30.13 in 10.0 mi Calm Calm - N/A   Clear
8:35 PM 62.6 °F 48.2 °F 59% 30.13 in 10.0 mi Calm Calm - N/A   Clear
8:55 PM 57.2 °F 50.0 °F 77% 30.13 in 10.0 mi Calm Calm - N/A   Clear
9:15 PM 57.2 °F 51.8 °F 82% 30.13 in 10.0 mi Calm Calm - N/A   Clear
9:35 PM 57.2 °F 53.6 °F 88% 30.13 in 10.0 mi Calm Calm - N/A   Clear
9:55 PM 55.4 °F 53.6 °F 94% 30.13 in 10.0 mi SSE 3.5 mph - N/A   Clear
10:15 PM 53.6 °F 53.6 °F 100% 30.13 in 10.0 mi SSE 4.6 mph - N/A   Clear
10:35 PM 55.4 °F 53.6 °F 94% 30.13 in 10.0 mi South 3.5 mph - N/A   Clear
10:55 PM 57.2 °F 51.8 °F 82% 30.13 in 10.0 mi South 5.8 mph - N/A   Clear
11:15 PM 57.2 °F 51.8 °F 82% 30.13 in 10.0 mi SSE 4.6 mph - N/A   Clear
11:35 PM 57.2 °F 51.8 °F 82% 30.12 in 10.0 mi South 3.5 mph - N/A   Clear
11:55 PM 55.4 °F 51.8 °F 88% 30.12 in 10.0 mi SSE 4.6 mph - N/A   Clear